Regional Weather Roundup
Issued by NWS

Home | Current Version | Previous Version | Graphics & Text | Print | Product List | Glossary On
Versions: 1 2 3 4 5 6 7 8 9 10 11 12 13 14 15 16 17 18 19 20 21 22 23 24 25 26 27 28 29 30 31 32 33 34 35 36 37 38 39 40 41 42 43 44 45 46 47 48 49 50
000
ASUS43 KLSX 202210
RWRMO

WEATHER SUMMARY FOR MISSOURI
NATIONAL WEATHER SERVICE SPRINGFIELD MO
400 PM CST MON FEB 20 2017

NOTE: "FAIR" INDICATES FEW OR NO CLOUDS BELOW 12,000 FEET WITH NO
       SIGNIFICANT WEATHER AND/OR OBSTRUCTIONS TO VISIBILITY.
       CURRENT SKY AND/OR WEATHER CONDITIONS ARE NOT AVAILABLE FOR
       CHILLICOTHE AND FARMINGTON.

MOZ001>031-035>038-043-044-053-054-202300-
...NORTHERN AND WESTERN MISSOURI...

CITY           SKY/WX    TMP DP  RH WIND       PRES   REMARKS
KANSAS CTY INT CLOUDY    65  51  60 SW18G25   29.83R
KANSAS C DTWN  CLOUDY    68  51  54 SW13      29.83R
LEE`S SUMMIT   CLOUDY    67  51  56 SW10      29.84S
ST JOSEPH      CLOUDY    66  53  63 SW15      29.82R
CHILLICOTHE      N/A     66  58  75 S8        29.85R
KIRKSVILLE     CLOUDY    65  58  78 SW12      29.87S

$$
MOZ066>068-077>081-088>096-101>105-202300-
...SOUTHWEST MISSOURI...

CITY           SKY/WX    TMP DP  RH WIND       PRES   REMARKS
SPRINGFIELD    LGT RAIN  67  55  65 SW7       29.90R
JOPLIN         CLOUDY    64  57  78 SW13      29.92R
BRANSON        CLOUDY    66  59  77 S8        29.92R

$$
MOZ032>034-039>042-045>050-055>058-069>072-202300-
...CENTRAL MISSOURI...

CITY           SKY/WX    TMP DP  RH WIND       PRES   REMARKS
COLUMBIA       CLOUDY    74  57  55 SW13G21   29.86S
JEFFERSON CITY CLOUDY    75  57  53 S18       29.85F
ROLLA          PTSUNNY   73  56  54 S18G28    29.88R
SEDALIA        CLOUDY    68  59  73 S13       29.88S
WHITEMAN AFB   CLOUDY    65  64  96 SW7       29.84F
WARRENSBURG    CLOUDY    64  55  72 SW8       29.85F
OSAGE BEACH    CLOUDY    73  58  59 S12       29.87F

$$
MOZ051-052-059>065-202300-
...EAST CENTRAL MISSOURI...

CITY           SKY/WX    TMP DP  RH WIND       PRES   REMARKS
ST LOUIS INTL  PTSUNNY   76  52  43 S20       29.91F
SPIRIT OF STL  CLOUDY    76  51  41 S10G17    29.88F
ST CHARLES     MOSUNNY   75  51  43 S20G29    29.89F

$$
MOZ072>076-082>087-097>100-106>115-202300-
...SOUTH CENTRAL AND SOUTHEAST MISSOURI...

CITY           SKY/WX    TMP DP  RH WIND       PRES   REMARKS
CAPE GIRARDEAU CLOUDY    70  55  59 SE14      29.98F
FARMINGTON     CLOUDY    71  53  52 S15       29.95F
POPLAR BLUFF   PTSUNNY   74  58  57 SE12      29.95F
WEST PLAINS    CLOUDY    73  58  59 S14G22    29.93S

$$



USA.gov is the U.S. government's official web portal to all federal, state and local government web resources and services.